Location: Copper Breaks State Park
(34.1132°N, 99.7492°W)
Time: 13:46:05
(UTC-05:00)

Daily predictions for brighter satellites

Satellite Brightness Start Highest point End
(mag) Time Altitude Azimuth Time Altitude Azimuth Time Altitude Azimuth
NOSS 3-2 (C) 4.2 21:02:03 10° SW 21:07:53 59° NW 21:14:15 10° NNE
Lacrosse 5 rocket 1.6 21:07:18 10° SW 21:10:50 60° NW 21:14:24 10° NNE
Cosmos 1346 Rocket 3.5 21:07:52 10° N 21:11:34 37° ENE 21:15:18 10° SSE
COSMOS 2455 2.9 21:08:44 10° SSW 21:14:44 84° ESE 21:20:46 10° NNE
CENTAUR R/B 2.6 21:09:26 10° S 21:15:00 50° ESE 21:21:14 10° NE
Molniya-1 3.1 21:13:58 10° SW 21:15:59 54° WNW 21:17:37 10° NNE
Envisat 3.1 21:20:39 10° SSE 21:25:37 59° ENE 21:30:38 10° N
TIMED 4.4 21:22:07 10° S 21:26:27 73° ESE 21:30:50 10° NNE
Cosmos 1939 Rocket 3.5 21:23:07 10° SE 21:26:59 40° ENE 21:30:51 10° N
Cosmos 1933 4.1 21:23:55 10° NNW 21:27:51 55° W 21:31:45 10° S
Helios 1A 3.9 21:25:19 10° SE 21:28:59 31° ENE 21:32:42 10° N
Cosmos 1825 3.5 21:28:00 10° SE 21:30:52 22° E 21:33:50 10° NE
Cosmos 2221 Rocket 4.5 21:30:41 10° NNE 21:34:38 31° ENE 21:37:51 14° SE
Cosmos 2082 Rocket 4.3 21:31:12 10° NW 21:35:42 25° WSW 21:40:12 10° SSW
SJ-11-01 4.4 21:35:21 10° SSE 21:39:58 57° ENE 21:44:35 10° N
Cosmos 1125 Rocket 3.5 21:36:26 10° S 21:41:34 59° ESE 21:46:42 10° NNE
USA 186 2.5 21:39:40 10° S 21:42:13 43° W 21:44:59 10° NNW
Meteor 2-3 Rocket 4.1 21:37:50 10° SSW 21:43:32 70° W 21:49:12 10° N
Cosmos 1634 Rocket 4.0 21:45:32 10° N 21:51:50 74° E 21:58:09 10° SSE
Cosmos 1782 3.4 21:49:12 10° N 21:52:56 37° E 21:54:51 23° SE
Cosmos 1892 4.4 21:49:40 10° SSW 21:53:12 34° W 21:56:44 10° NNW
Cosmos 1943 Rocket 2.1 21:48:49 10° SSW 21:54:24 77° ESE 21:59:58 10° NNE
SAR-Lupe-4 4.0 22:01:44 29° SE 22:03:05 44° ENE 22:06:30 10° N
Resurs 01 Rocket 3.6 21:59:29 10° SSW 22:03:14 27° W 22:07:00 10° NW
Cosmos 158 Rocket 4.2 22:00:35 10° N 22:05:17 46° ENE 22:07:34 27° SE
Delta 7925 Rocket 4.2 22:01:09 10° SW 22:05:18 30° S 22:06:54 25° SE
Okean 1-7 3.0 22:02:40 10° N 22:07:04 74° E 22:09:50 22° SSE
OAO 3 Copernicus 4.3 22:02:20 10° W 22:07:22 89° NNW 22:11:17 17° E
Cosmos 1340 3.4 22:05:02 10° NNE 22:08:31 34° ENE 22:09:14 31° ESE
Spot 1 4.3 22:07:08 19° SSE 22:10:34 84° ENE 22:15:36 10° NNW
Cosmos 1862 3.7 22:09:35 32° SE 22:10:42 40° E 22:14:26 10° NNE
YAOGAN 6 2.8 22:11:47 22° S 22:14:03 72° W 22:17:45 10° NNW
CZ-4B DEB 2.4 22:13:27 50° SSE 22:14:08 87° ENE 22:17:04 10° N
NOAA 11 4.3 22:11:32 25° SE 22:14:37 57° ENE 22:19:59 10° N
Meteor 1-29 3.3 22:12:55 10° N 22:16:24 65° WNW 22:19:41 11° SSW
Tiangong 2 2.1 22:16:09 10° WNW 22:19:06 34° SW 22:19:29 32° SSW
Cosmos 2344 3.5 22:12:08 10° SSW 22:19:51 81° ESE 22:27:58 10° NNE
Terra 4.0 22:20:55 11° ENE 22:21:15 11° ENE 22:22:23 10° NE
H-2A R/B 3.2 22:20:37 25° E 22:22:03 28° ENE 22:26:32 10° NNE
Cosmos 2279 Rocket 3.9 22:16:53 10° N 22:23:10 76° E 22:27:06 24° SSE
Cosmos 2369 Rocket 4.1 22:19:09 10° SW 22:24:09 32° WNW 22:29:12 10° N
SAR-Lupe-1 3.9 22:23:53 52° SE 22:24:38 75° ENE 22:28:11 10° N
ERS-1 Rocket 2.9 22:23:44 32° SSE 22:26:04 73° ENE 22:31:06 10° N
Helios 1B rocket 3.7 22:22:22 10° N 22:26:14 41° WNW 22:30:05 10° SW
Shenzhou-11 Module 4.0 22:24:32 10° W 22:26:47 19° SW 22:26:47 19° SW
GPS 2-04 Rocket1 2.3 22:25:49 10° W 22:29:33 77° SSW 22:29:53 68° SE
Cosmos 1606 2.8 22:26:48 10° N 22:30:34 72° W 22:31:47 40° SSW
Cosmos 1733 Rocket 3.0 22:33:26 51° SE 22:34:12 61° E 22:38:29 10° NNE
Lacrosse 4 Rocket 1.6 22:30:52 10° NNW 22:35:19 61° ENE 22:36:05 52° ESE
MetOp-B 4.1 22:35:11 38° SSE 22:37:17 75° ENE 22:42:38 10° N
ATLAS CENTAUR R/B 2.8 22:41:20 24° NE 22:41:20 24° NE 22:43:05 10° NE
Cosmos 1833 4.2 22:33:57 10° NNW 22:39:42 66° ENE 22:41:28 43° SE
Cosmos 1408 4.4 22:38:30 10° SW 22:41:49 31° W 22:45:11 10° NNW
ATLAS 5 CENTAUR R/B 2.4 22:37:34 10° NNW 22:43:46 82° ENE 22:46:13 41° SE
USA 215 4.0 22:40:49 26° E 22:44:04 43° NE 22:50:12 10° NNW
Cosmos 2180 Rocket 4.5 22:38:37 10° N 22:45:02 87° W 22:48:17 31° S
Nimbus 7 Rocket 4.5 22:39:22 10° NNE 22:45:06 54° ESE 22:46:30 44° SE
Cosmos 1048 Rocket 4.2 22:40:42 10° NNW 22:45:58 69° WSW 22:47:53 39° S
SPOT 5 3.1 22:45:33 48° SE 22:46:51 64° ENE 22:52:06 10° N
Cosmos 1656 Rocket 3.6 22:43:28 11° SSW 22:48:46 84° WNW 22:54:19 10° NNE
ARGOS 3.0 22:51:39 49° SSE 22:53:10 87° ENE 22:58:33 10° NNW
Meteor 2-20 4.4 22:54:06 47° SSE 22:55:48 66° E 23:01:51 10° NNE
SL-08 RB Rocket 3.8 23:11:08 71° SW 23:11:20 73° WSW 23:16:01 10° NNW
Meteor 1-27 Rocket 4.1 23:06:42 10° NNW 23:12:18 58° W 23:13:58 41° SSW
Cosmos 2026 Rocket 4.2 23:15:05 50° E 23:15:05 50° E 23:20:56 10° NNE
Cosmos 2251 Rocket 3.8 23:10:04 10° N 23:14:57 53° ENE 23:14:57 53° ENE
Cosmos 1674 Rocket 3.8 23:11:19 10° N 23:15:02 65° NNW 23:15:02 65° NNW
SPOT 1/Viking Rocket 3.4 23:20:11 79° SW 23:20:25 81° WSW 23:25:39 10° NNW
Okean 3 4.5 23:17:41 10° N 23:20:28 39° NNE 23:20:28 39° NNE
DMSP B5D2-2 3.9 23:19:16 10° NNE 23:24:30 87° WNW 23:24:32 86° WSW
H-2A R/B 4.0 23:27:42 20° NNE 23:27:42 20° NNE 23:29:27 10° NNE
Meteor 1-25 Rocket 4.4 23:33:11 60° ENE 23:33:11 60° ENE 23:38:15 10° NNE
Cosmos 2227 Rocket 3.8 23:33:00 10° N 23:37:06 23° NE 23:37:06 23° NE
Milstar 3 3.1 23:30:55 10° WSW 23:41:10 59° S 23:41:17 59° S
Landsat 7 4.4 23:44:07 53° NW 23:44:07 53° NW 23:47:57 10° NNW
GEOS 3 Rocket 4.4 23:46:59 42° NE 23:46:59 42° NE 23:51:23 10° NNW
Cosmos 2219 3.3 23:40:45 10° NNW 23:45:59 74° N 23:45:59 74° N
